FW8293 Weather Reports


Display with metric or nautical units.
time (UTC)temp
F
wind
direction
speed
MPH
gust
MPH
rain 1hr
in
rain 24hr
in
rain mn
in
humidity
%
barometer
mb
20260503173053 62 207 5.0 12.0 0.00 0.00 0.00 36 1018.5
20260503171532 63 193 1.0 7.0 0.00 0.00 0.00 40 1018.7
20260503081547 33 0 0.0 1.0 0.00 0.00 0.00 95 1017.7
20260503071537 35 0 0.0 2.0 0.00 0.00 0.00 95 1017.2
20260503054536 36 0 0.0 1.0 0.00 0.00 0.00 93 1016.9
20260503053030 37 0 0.0 1.0 0.00 0.00 0.00 93 1016.7
20260503051530 37 177 0.0 1.0 0.00 0.00 0.00 92 1016.7
20260503050028 38 0 0.0 1.0 0.00 0.00 0.00 91 1016.6
20260503044540 38 0 0.0 1.0 0.00 0.00 0.00 91 1016.7
20260503043029 39 0 0.0 3.0 0.00 0.00 0.00 90 1016.5
20260503041535 39 165 1.0 3.0 0.00 0.00 0.00 89 1016.3
20260503040029 40 0 0.0 3.0 0.00 0.00 0.00 89 1016.1
20260503034528 40 0 0.0 2.0 0.00 0.00 0.00 89 1016.0
20260503033027 40 0 0.0 3.0 0.00 0.00 0.00 88 1015.8
20260503031528 41 132 0.0 1.0 0.00 0.00 0.00 86 1015.8
20260503030030 42 0 0.0 4.0 0.00 0.00 0.00 85 1015.8
20260503024528 42 207 1.0 3.0 0.00 0.00 0.00 84 1015.6
20260503023031 43 0 0.0 2.0 0.00 0.00 0.00 82 1015.5
20260503021528 44 183 1.0 2.0 0.00 0.00 0.00 80 1015.2
20260503020028 46 153 1.0 4.0 0.00 0.00 0.00 76 1015.2
20260503014535 47 245 1.0 5.0 0.00 0.00 0.00 71 1015.0
20260503013036 48 266 2.0 4.0 0.00 0.00 0.00 66 1014.8
20260503011530 50 245 1.0 7.0 0.00 0.00 0.00 64 1014.5
20260503010030 53 193 1.0 6.0 0.00 0.00 0.00 52 1014.2
20260503004530 54 58 1.0 4.0 0.00 0.00 0.00 52 1013.9
20260503003030 54 313 0.0 6.0 0.00 0.00 0.00 49 1013.6
20260503001530 55 9 0.0 5.0 0.00 0.00 0.00 46 1013.5
20260503000036 57 74 0.0 13.0 0.00 0.00 0.00 44 1013.2
20260502234531 58 102 3.0 7.0 0.00 0.00 0.00 40 1012.9
20260502233028 59 216 2.0 7.0 0.00 0.00 0.00 39 1012.6
20260502231530 59 219 2.0 5.0 0.00 0.00 0.00 41 1012.4
20260502230032 60 118 2.0 8.0 0.00 0.00 0.00 38 1012.3
20260502224529 62 153 2.0 13.0 0.00 0.00 0.00 37 1012.4
20260502223030 61 149 4.0 13.0 0.00 0.00 0.00 38 1012.3
20260502221534 62 129 2.0 12.0 0.00 0.00 0.00 36 1011.9
20260502220034 62 236 5.0 11.0 0.00 0.00 0.00 37 1011.8
20260502214529 65 160 6.0 15.0 0.00 0.00 0.00 35 1011.4
20260502213027 64 224 4.0 9.0 0.00 0.00 0.00 36 1011.1
20260502211528 63 211 5.0 11.0 0.00 0.00 0.00 39 1011.0
20260502210030 64 191 2.0 6.0 0.00 0.00 0.00 40 1011.0
20260502204528 63 38 3.0 6.0 0.00 0.00 0.00 52 1011.0
20260502203029 62 92 1.0 5.0 0.00 0.00 0.00 53 1011.0
20260502201534 62 146 3.0 9.0 0.00 0.00 0.00 54 1011.1
20260502200028 63 59 2.0 7.0 0.00 0.00 0.00 48 1011.1
20260502194529 63 33 0.0 3.0 0.00 0.00 0.00 50 1011.3
20260502193030 63 0 1.0 4.0 0.00 0.00 0.00 51 1011.6
20260502191533 62 281 1.0 3.0 0.00 0.00 0.00 53 1011.7
20260502190031 61 219 3.0 7.0 0.00 0.00 0.00 54 1011.9
20260502184527 62 179 1.0 5.0 0.00 0.00 0.00 51 1011.9
20260502183029 61 119 3.0 8.0 0.00 0.00 0.00 55 1012.1
20260502181528 62 199 2.0 8.0 0.00 0.00 0.00 54 1012.0